UAE41T VABB-OMDB

Flight info

Callsign UAE41T
Flight time N/A
Altitude 40000
Route RAXET2A SAKUN V2 SUGID N571 VUSET A454 PASOV B540 KUPMA/N0434F240 B540 MIVEK P574 IMPED
Aircraft A35K/H-SDE2E3GHIJ3J4J5LM1ORWXY/LB1D1

Departure

Time 2026-04-30 14:03
Airport Chhatrapati Shivaji Maharaj International Airport (VABB)

Arrival

Time N/A
Airport Dubai International Airport (OMDB)
Time Latitude Longitude Altitude Speed Heading
2026-04-30 13:40 19.09307 72.87145 55 ft 0 kts 359°
2026-04-30 13:52 19.09301 72.87145 55 ft 2 kts 359°
2026-04-30 13:53 19.09285 72.87146 51 ft 2 kts 359°
2026-04-30 13:53 19.09268 72.87145 47 ft 2 kts 11°
2026-04-30 13:53 19.09254 72.87138 47 ft 2 kts 36°
2026-04-30 13:53 19.09245 72.87131 47 ft 2 kts 50°
2026-04-30 13:54 19.09237 72.87111 47 ft 2 kts 88°
2026-04-30 13:54 19.09236 72.87102 47 ft 0 kts 88°
2026-04-30 13:58 19.09238 72.87147 49 ft 6 kts 88°
2026-04-30 13:58 19.09237 72.87202 51 ft 9 kts 95°
2026-04-30 13:59 19.09202 72.87252 49 ft 9 kts 154°
2026-04-30 13:59 19.09136 72.87264 53 ft 10 kts 174°
2026-04-30 13:59 19.09065 72.87289 51 ft 11 kts 134°
2026-04-30 13:59 19.09052 72.87373 50 ft 13 kts 87°
2026-04-30 14:00 19.09054 72.87477 49 ft 15 kts 89°
2026-04-30 14:00 19.09057 72.87734 49 ft 20 kts 88°
2026-04-30 14:00 19.09058 72.87887 49 ft 22 kts 89°
2026-04-30 14:01 19.09039 72.88035 49 ft 17 kts 139°
2026-04-30 14:01 19.08925 72.88038 52 ft 18 kts 206°
2026-04-30 14:01 19.08887 72.87933 53 ft 13 kts 267°
2026-04-30 14:01 19.08887 72.87924 53 ft 0 kts 267°
2026-04-30 14:02 19.08884 72.87862 48 ft 36 kts 268°
2026-04-30 14:02 19.08871 72.87329 51 ft 106 kts 268°
2026-04-30 14:02 19.08847 72.86326 58 ft 165 kts 267°
2026-04-30 14:02 19.08849 72.85015 466 ft 187 kts 271°
2026-04-30 14:03 19.08990 72.83567 1000 ft 209 kts 275°
2026-04-30 14:03 19.09142 72.81977 1503 ft 223 kts 272°
2026-04-30 14:03 19.09216 72.80295 1912 ft 237 kts 269°
2026-04-30 14:03 19.09313 72.78510 2405 ft 247 kts 275°
2026-04-30 14:04 19.09508 72.76690 3045 ft 251 kts 278°
2026-04-30 14:04 19.09769 72.74847 3658 ft 254 kts 279°
2026-04-30 14:04 19.10058 72.73018 4317 ft 256 kts 281°
2026-04-30 14:04 19.10358 72.71154 4936 ft 259 kts 280°
2026-04-30 14:05 19.10650 72.69272 5590 ft 259 kts 279°
2026-04-30 14:05 19.10937 72.67394 6250 ft 259 kts 279°
2026-04-30 14:05 19.11219 72.65510 6856 ft 260 kts 279°
2026-04-30 14:05 19.11498 72.63605 7393 ft 264 kts 279°
2026-04-30 14:06 19.11777 72.61667 7926 ft 269 kts 279°
2026-04-30 14:06 19.12337 72.57713 9061 ft 275 kts 278°
2026-04-30 14:07 19.12908 72.53659 10086 ft 286 kts 278°
2026-04-30 14:07 19.13208 72.51531 10341 ft 299 kts 278°
2026-04-30 14:07 19.13523 72.49304 10584 ft 313 kts 278°
2026-04-30 14:08 19.14192 72.44566 11042 ft 337 kts 278°
2026-04-30 14:08 19.14540 72.42090 11397 ft 344 kts 279°
2026-04-30 14:08 19.15253 72.37020 12247 ft 351 kts 279°
2026-04-30 14:09 19.15613 72.34458 12696 ft 354 kts 279°
2026-04-30 14:09 19.15976 72.31868 13156 ft 357 kts 279°
2026-04-30 14:09 19.16709 72.26632 13994 ft 363 kts 279°
2026-04-30 14:10 19.17078 72.23989 14384 ft 365 kts 279°
2026-04-30 14:10 19.17447 72.21346 14778 ft 368 kts 279°
2026-04-30 14:10 19.17822 72.18664 15176 ft 370 kts 279°
2026-04-30 14:10 19.18199 72.15960 15583 ft 373 kts 279°
2026-04-30 14:11 19.18579 72.13229 16001 ft 375 kts 280°
2026-04-30 14:11 19.18960 72.10489 16414 ft 378 kts 280°
2026-04-30 14:11 19.19342 72.07738 16825 ft 380 kts 280°
2026-04-30 14:11 19.19728 72.04960 17236 ft 383 kts 280°
2026-04-30 14:12 19.20115 72.02163 17638 ft 385 kts 280°
2026-04-30 14:12 19.20504 71.99351 18043 ft 388 kts 280°
2026-04-30 14:12 19.20878 71.96509 18411 ft 390 kts 279°
2026-04-30 14:12 19.21236 71.93661 18779 ft 392 kts 279°
2026-04-30 14:13 19.21598 71.90793 19164 ft 393 kts 279°
2026-04-30 14:13 19.21972 71.87918 19541 ft 394 kts 280°
2026-04-30 14:13 19.22350 71.85037 19909 ft 396 kts 280°
2026-04-30 14:13 19.22732 71.82178 20278 ft 397 kts 281°
2026-04-30 14:14 19.23137 71.79277 20659 ft 398 kts 281°
2026-04-30 14:14 19.23551 71.76377 21024 ft 400 kts 281°
2026-04-30 14:14 19.23970 71.73460 21403 ft 401 kts 281°
2026-04-30 14:14 19.24384 71.70532 21759 ft 403 kts 281°
2026-04-30 14:15 19.24794 71.67595 22117 ft 405 kts 281°
2026-04-30 14:15 19.25201 71.64642 22482 ft 406 kts 281°
2026-04-30 14:15 19.25605 71.61683 22827 ft 408 kts 281°
2026-04-30 14:15 19.26009 71.58708 23176 ft 409 kts 281°
2026-04-30 14:16 19.26414 71.55724 23498 ft 411 kts 281°
2026-04-30 14:16 19.26819 71.52733 23758 ft 413 kts 281°
2026-04-30 14:16 19.27228 71.49712 23992 ft 415 kts 281°
2026-04-30 14:16 19.27639 71.46674 24236 ft 417 kts 281°
2026-04-30 14:17 19.28051 71.43624 24476 ft 420 kts 281°
2026-04-30 14:17 19.28465 71.40559 24713 ft 422 kts 281°
2026-04-30 14:17 19.28880 71.37478 24953 ft 424 kts 281°
2026-04-30 14:17 19.29297 71.34388 25191 ft 426 kts 281°
2026-04-30 14:18 19.29715 71.31275 25426 ft 428 kts 281°
2026-04-30 14:18 19.30135 71.28150 25661 ft 430 kts 281°
2026-04-30 14:18 19.30979 71.21856 26146 ft 433 kts 280°
2026-04-30 14:19 19.31828 71.15508 26634 ft 437 kts 280°
2026-04-30 14:19 19.32255 71.12307 26873 ft 439 kts 280°
2026-04-30 14:19 19.32683 71.09094 27090 ft 442 kts 280°
2026-04-30 14:20 19.33112 71.05868 27332 ft 444 kts 280°
2026-04-30 14:20 19.33573 71.02622 27574 ft 445 kts 283°
2026-04-30 14:20 19.34603 70.96155 28025 ft 450 kts 281°
2026-04-30 14:21 19.35016 70.92854 28281 ft 453 kts 277°
2026-04-30 14:21 19.35362 70.89524 28509 ft 455 kts 278°
2026-04-30 14:21 19.36113 70.82837 28982 ft 459 kts 279°
2026-04-30 14:22 19.36540 70.79486 29208 ft 461 kts 279°
2026-04-30 14:22 19.37442 70.72724 29695 ft 465 kts 279°
2026-04-30 14:22 19.37898 70.69319 29911 ft 468 kts 279°
2026-04-30 14:23 19.38817 70.62472 30332 ft 472 kts 279°
2026-04-30 14:23 19.39730 70.55556 30791 ft 475 kts 279°
2026-04-30 14:24 19.40637 70.48589 31276 ft 479 kts 279°
2026-04-30 14:24 19.41090 70.45092 31509 ft 480 kts 279°
2026-04-30 14:25 19.41991 70.38106 31985 ft 483 kts 278°
2026-04-30 14:25 19.42884 70.31029 32424 ft 486 kts 278°
2026-04-30 14:26 19.43792 70.23907 32861 ft 489 kts 278°
2026-04-30 14:26 19.44251 70.20330 33077 ft 490 kts 278°
2026-04-30 14:26 19.45170 70.13148 33496 ft 493 kts 278°
2026-04-30 14:27 19.45630 70.09541 33712 ft 494 kts 278°
2026-04-30 14:27 19.46091 70.05927 33907 ft 495 kts 278°
2026-04-30 14:27 19.46551 70.02309 34137 ft 495 kts 278°
2026-04-30 14:28 19.47463 69.95131 34707 ft 493 kts 278°
2026-04-30 14:28 19.47918 69.91532 35011 ft 492 kts 278°
2026-04-30 14:28 19.48372 69.87943 35311 ft 491 kts 278°
2026-04-30 14:28 19.48824 69.84360 35630 ft 490 kts 278°
2026-04-30 14:29 19.49724 69.77209 36236 ft 488 kts 278°
2026-04-30 14:29 19.50470 69.71286 36754 ft 487 kts 278°
2026-04-30 14:30 19.51952 69.59459 37787 ft 484 kts 278°
2026-04-30 14:31 19.52832 69.52405 38381 ft 482 kts 278°
2026-04-30 14:31 19.53708 69.45363 38879 ft 481 kts 278°
2026-04-30 14:31 19.54145 69.41847 39084 ft 481 kts 278°
2026-04-30 14:32 19.55437 69.34911 39475 ft 480 kts 289°
2026-04-30 14:32 19.56671 69.31621 39683 ft 479 kts 295°
2026-04-30 14:32 19.58093 69.28422 39815 ft 479 kts 297°
2026-04-30 14:33 19.59575 69.25317 39838 ft 478 kts 297°
2026-04-30 14:33 19.64200 69.15932 39841 ft 478 kts 297°
2026-04-30 14:34 19.67246 69.09655 39837 ft 478 kts 297°
2026-04-30 14:34 19.70115 69.03287 39831 ft 478 kts 294°
2026-04-30 14:35 19.74618 68.93827 39835 ft 479 kts 297°
2026-04-30 14:36 19.77699 68.87561 39837 ft 478 kts 297°
2026-04-30 14:36 19.80737 68.81266 39834 ft 478 kts 296°
2026-04-30 14:37 19.83743 68.74969 39832 ft 478 kts 296°
2026-04-30 14:37 19.86739 68.68697 39835 ft 478 kts 296°
2026-04-30 14:38 19.89752 68.62386 39832 ft 478 kts 296°
2026-04-30 14:38 19.92756 68.56077 39833 ft 478 kts 296°
2026-04-30 14:39 19.95752 68.49770 39830 ft 478 kts 296°
2026-04-30 14:39 19.98745 68.43460 39830 ft 478 kts 296°
2026-04-30 14:40 20.03220 68.34016 39829 ft 478 kts 296°
2026-04-30 14:40 20.05701 68.28772 39830 ft 478 kts 296°
2026-04-30 14:41 20.08687 68.22456 39835 ft 478 kts 296°
2026-04-30 14:41 20.11666 68.16146 39834 ft 478 kts 296°
2026-04-30 14:42 20.14648 68.09823 39832 ft 478 kts 296°
2026-04-30 14:42 20.17629 68.03497 39832 ft 478 kts 296°
2026-04-30 14:43 20.20611 67.97157 39830 ft 478 kts 296°
2026-04-30 14:43 20.23586 67.90829 39830 ft 478 kts 296°
2026-04-30 14:44 20.26558 67.84498 39831 ft 478 kts 295°
2026-04-30 14:44 20.29532 67.78158 39829 ft 478 kts 295°
2026-04-30 14:45 20.32457 67.71845 39825 ft 478 kts 294°
2026-04-30 14:45 20.35280 67.65702 39829 ft 478 kts 295°
2026-04-30 14:46 20.38230 67.59344 39829 ft 478 kts 295°
2026-04-30 14:46 20.41168 67.53044 39830 ft 478 kts 295°
2026-04-30 14:47 20.44134 67.46688 39822 ft 478 kts 295°
2026-04-30 14:47 20.47094 67.40336 39824 ft 478 kts 295°
2026-04-30 14:48 20.50033 67.34019 39826 ft 478 kts 295°
2026-04-30 14:48 20.52988 67.27658 39822 ft 478 kts 295°
2026-04-30 14:49 20.55946 67.21285 39824 ft 479 kts 294°
2026-04-30 14:49 20.58900 67.14912 39822 ft 479 kts 294°
2026-04-30 14:50 20.63329 67.05344 39820 ft 479 kts 294°
2026-04-30 14:51 20.67756 66.95766 39815 ft 479 kts 294°
2026-04-30 14:52 20.72177 66.86179 39814 ft 480 kts 294°
2026-04-30 14:52 20.76576 66.76622 39816 ft 480 kts 294°
2026-04-30 14:53 20.80996 66.67008 39817 ft 480 kts 294°
2026-04-30 14:54 20.86877 66.54184 39817 ft 480 kts 294°
2026-04-30 14:55 20.91281 66.44554 39817 ft 480 kts 294°
2026-04-30 14:56 20.97147 66.31710 39817 ft 480 kts 294°
2026-04-30 14:57 21.01548 66.22058 39810 ft 480 kts 294°
2026-04-30 14:58 21.07381 66.09233 39810 ft 481 kts 294°
2026-04-30 14:58 21.11763 65.99571 39820 ft 480 kts 294°
2026-04-30 15:00 21.19294 65.83586 39817 ft 481 kts 294°
2026-04-30 15:01 21.25327 65.70782 39814 ft 481 kts 294°
2026-04-30 15:01 21.29830 65.61171 39815 ft 480 kts 294°
2026-04-30 15:02 21.32812 65.54801 39814 ft 481 kts 294°
2026-04-30 15:03 21.40310 65.38760 39812 ft 481 kts 294°
2026-04-30 15:04 21.47778 65.22739 39808 ft 481 kts 294°
2026-04-30 15:06 21.55246 65.06660 39814 ft 480 kts 294°
2026-04-30 15:07 21.61182 64.93844 39798 ft 480 kts 294°
2026-04-30 15:08 21.67134 64.80961 39802 ft 480 kts 294°
2026-04-30 15:09 21.74558 64.64849 39801 ft 481 kts 293°
2026-04-30 15:10 21.80465 64.51989 39801 ft 481 kts 293°
2026-04-30 15:11 21.89347 64.32594 39806 ft 481 kts 293°
2026-04-30 15:13 21.96727 64.16431 39803 ft 481 kts 293°
2026-04-30 15:14 22.07021 63.93792 39798 ft 481 kts 293°
2026-04-30 15:17 22.20191 63.64676 39799 ft 480 kts 292°
2026-04-30 15:19 22.30595 63.41547 39797 ft 480 kts 292°